星链-4019 (STARLINK-4019 )

导读

STARLINK-4019是美国太空探索技术公司(SpaceX)星链星座中的一颗卫星,于2022年5月14日发射升空,属于星链互联网卫星项目组网卫星。它服务于全球卫星互联网建设,为地面偏远地区等提供低延迟宽带互联网接入服务,目前该卫星已进入预定轨道运行,支撑星链星座的全球服务覆盖能力。

基本信息
目录编号:
52598
目录名称:
STARLINK-4019
国际标识:
2022-052A
轨道中心:
EARTH
卫星名称:
星链-4019
卫星全名:
星链-4019 (STARLINK-4019 )
卫星状态:
在轨 (已飞行1495 天)
发射日期:
2022-05-14 UTC
国别 :
美国 (US)
星等 :
--
轨道信息
数据来源 国际轨道数据
星历时间: 2026-06-17T02:56:21+0800
18小时前
查看轨道信息
半长轴: 6917.912km
偏心率: 0.0001157
轨道倾角: 53.160°
近地点辐角 84.318°
升交点赤经 199.153°
平近点角 275.795°
近地点: 538.974km
远地点: 540.576km
周期: 95.438分钟
每日圈数: 15.088299
详细信息
固有亮度:
5
最大亮度:
2.5
卫星平台:
Starlink v1.5
覆盖范围:
全球
运营商:
太空探索技术公司
运营商所在国:
美国
制造商(研发单位):
太空探索技术公司
制造商所在国:
美国
使用方式:
暂无
卫星简介
星链(Starlink)计划是由太空探索技术公司(SpaceX)提出的一个巨型低轨卫星互联网星座项目,计划在2019年至2024年间在太空搭建由约1.2万颗卫星组成的“星链”网络,其中1584颗将部署在地球上空550千米处的近地轨道,并从2020年开始工作。该卫星仍在工作。
2D轨道图
3D轨道图
轨道高度分析图
轨道倾角分析图
轨道综合分析图
查看轨道综合分析图